JSX1041 KFPR-KMTH

Flight info

Callsign JSX1041
Flight time 0h 40m
Altitude 28000
Route BLDOG DIDDY SWAGS
Aircraft E145/M-SABDFGRW/S

Departure

Time 2026-05-04 06:05
Airport Treasure Coast International Airport (KFPR)

Arrival

Time 2026-05-04 06:45
Airport Florida Keys Marathon International Airport (KMTH)
Time Latitude Longitude Altitude Speed Heading
2026-05-04 05:56 27.48723 -80.36401 20 ft 0 kts 314°
2026-05-04 06:03 27.49063 -80.36679 20 ft 21 kts 315°
2026-05-04 06:03 27.49176 -80.36804 20 ft 23 kts 316°
2026-05-04 06:05 27.48970 -80.36409 20 ft 125 kts 135°
2026-05-04 06:05 27.47268 -80.35066 800 ft 161 kts 160°
2026-05-04 06:05 27.46134 -80.34927 1345 ft 170 kts 178°
2026-05-04 06:06 27.44867 -80.35132 1725 ft 191 kts 192°
2026-05-04 06:06 27.43523 -80.35598 2106 ft 212 kts 194°
2026-05-04 06:06 27.42146 -80.36258 2799 ft 215 kts 220°
2026-05-04 06:06 27.41076 -80.37415 3454 ft 220 kts 226°
2026-05-04 06:07 27.40081 -80.38777 4108 ft 225 kts 231°
2026-05-04 06:07 27.39090 -80.40258 4447 ft 244 kts 239°
2026-05-04 06:07 27.38222 -80.41844 5382 ft 234 kts 238°
2026-05-04 06:07 27.37207 -80.43403 5434 ft 264 kts 231°
2026-05-04 06:08 27.35688 -80.44674 6056 ft 267 kts 209°
2026-05-04 06:08 27.34128 -80.45538 7421 ft 237 kts 208°
2026-05-04 06:08 27.32691 -80.46320 8276 ft 228 kts 211°
2026-05-04 06:08 27.31279 -80.47222 8805 ft 236 kts 213°
2026-05-04 06:09 27.29728 -80.48133 8878 ft 264 kts 211°
2026-05-04 06:09 27.28037 -80.49086 9436 ft 270 kts 211°
2026-05-04 06:11 27.14542 -80.56611 11470 ft 358 kts 210°
2026-05-04 06:11 27.12260 -80.57880 11468 ft 373 kts 210°
2026-05-04 06:13 26.96470 -80.66644 11474 ft 333 kts 210°
2026-05-04 06:14 26.84144 -80.73473 11468 ft 331 kts 210°
2026-05-04 06:14 26.82053 -80.74630 11466 ft 337 kts 210°
2026-05-04 06:15 26.79906 -80.75816 11470 ft 342 kts 210°
2026-05-04 06:15 26.77773 -80.76995 11472 ft 347 kts 210°
2026-05-04 06:15 26.75566 -80.78214 11467 ft 351 kts 210°
2026-05-04 06:15 26.73360 -80.79432 11469 ft 354 kts 210°
2026-05-04 06:16 26.71096 -80.80682 11471 ft 358 kts 210°
2026-05-04 06:16 26.68813 -80.81941 11467 ft 360 kts 210°
2026-05-04 06:16 26.66531 -80.83199 11466 ft 362 kts 210°
2026-05-04 06:16 26.64233 -80.84474 11463 ft 365 kts 207°
2026-05-04 06:17 26.61699 -80.85119 11472 ft 372 kts 189°
2026-05-04 06:17 26.59116 -80.85381 11457 ft 370 kts 189°
2026-05-04 06:17 26.56537 -80.85656 11463 ft 369 kts 190°
2026-05-04 06:17 26.53957 -80.85933 11466 ft 368 kts 189°
2026-05-04 06:18 26.51378 -80.86210 11465 ft 367 kts 189°
2026-05-04 06:18 26.48781 -80.86489 11457 ft 366 kts 189°
2026-05-04 06:18 26.46217 -80.86764 11455 ft 365 kts 190°
2026-05-04 06:20 26.28449 -80.88670 11441 ft 362 kts 190°
2026-05-04 06:20 26.25914 -80.88940 11440 ft 361 kts 190°
2026-05-04 06:21 26.15798 -80.90022 11437 ft 361 kts 190°
2026-05-04 06:21 26.13264 -80.90293 11430 ft 360 kts 190°
2026-05-04 06:22 26.10751 -80.90562 11433 ft 360 kts 190°
2026-05-04 06:22 26.08247 -80.90829 11431 ft 360 kts 190°
2026-05-04 06:25 25.76913 -80.98467 11436 ft 348 kts 210°
2026-05-04 06:25 25.74716 -80.99661 11429 ft 348 kts 210°
2026-05-04 06:26 25.72535 -81.00846 11433 ft 348 kts 210°
2026-05-04 06:26 25.70322 -81.02048 11428 ft 348 kts 210°
2026-05-04 06:26 25.68147 -81.03224 11429 ft 348 kts 210°
2026-05-04 06:26 25.65957 -81.04408 11435 ft 347 kts 210°
2026-05-04 06:27 25.57233 -81.09179 11440 ft 347 kts 210°
2026-05-04 06:28 25.55060 -81.10373 11431 ft 347 kts 210°
2026-05-04 06:28 25.52847 -81.11583 11434 ft 347 kts 210°
2026-05-04 06:28 25.50665 -81.12781 11435 ft 348 kts 208°
2026-05-04 06:28 25.48276 -81.13419 11426 ft 356 kts 186°
2026-05-04 06:29 25.45796 -81.12954 11428 ft 366 kts 163°
2026-05-04 06:29 25.43501 -81.11628 11447 ft 368 kts 158°
2026-05-04 06:29 25.41181 -81.10507 11431 ft 367 kts 163°
2026-05-04 06:29 25.38802 -81.09501 11436 ft 366 kts 164°
2026-05-04 06:30 25.36355 -81.08520 11428 ft 366 kts 165°
2026-05-04 06:30 25.33979 -81.07587 11431 ft 366 kts 165°
2026-05-04 06:30 25.31554 -81.06641 11428 ft 366 kts 165°
2026-05-04 06:30 25.29116 -81.05695 11430 ft 366 kts 165°
2026-05-04 06:31 25.26699 -81.04756 11428 ft 366 kts 165°
2026-05-04 06:31 25.24299 -81.03825 11431 ft 366 kts 165°
2026-05-04 06:31 25.21871 -81.02885 11429 ft 366 kts 165°
2026-05-04 06:31 25.19412 -81.01931 11432 ft 366 kts 165°
2026-05-04 06:32 25.16991 -81.00993 11438 ft 366 kts 165°
2026-05-04 06:33 25.00455 -80.94598 11413 ft 307 kts 166°
2026-05-04 06:34 24.98473 -80.93835 11120 ft 296 kts 166°
2026-05-04 06:34 24.96547 -80.93093 10738 ft 290 kts 165°
2026-05-04 06:34 24.94627 -80.92352 10394 ft 283 kts 165°
2026-05-04 06:34 24.92801 -80.91648 10093 ft 275 kts 166°
2026-05-04 06:35 24.91006 -80.90957 9834 ft 267 kts 165°
2026-05-04 06:36 24.78484 -80.86149 6529 ft 276 kts 165°
2026-05-04 06:37 24.76666 -80.85469 6047 ft 276 kts 165°
2026-05-04 06:37 24.74837 -80.84788 5574 ft 276 kts 165°
2026-05-04 06:37 24.72979 -80.84380 5132 ft 269 kts 185°
2026-05-04 06:37 24.71230 -80.84954 4715 ft 260 kts 214°
2026-05-04 06:38 24.70057 -80.86385 4299 ft 255 kts 245°
2026-05-04 06:38 24.69751 -80.88279 3883 ft 254 kts 274°
2026-05-04 06:40 24.73493 -81.00748 1976 ft 214 kts 322°
2026-05-04 06:40 24.74873 -81.01242 1984 ft 204 kts
2026-05-04 06:40 24.76204 -81.00814 1885 ft 200 kts 20°
2026-05-04 06:40 24.77512 -81.00243 1640 ft 201 kts 20°
2026-05-04 06:41 24.78811 -80.99674 1401 ft 197 kts 20°
2026-05-04 06:41 24.80006 -80.99143 1289 ft 173 kts 22°
2026-05-04 06:41 24.80969 -80.98376 1263 ft 169 kts 44°
2026-05-04 06:41 24.81562 -80.97249 1270 ft 173 kts 81°
2026-05-04 06:42 24.81327 -80.95983 1281 ft 174 kts 126°
2026-05-04 06:42 24.80338 -80.95236 1279 ft 176 kts 171°
2026-05-04 06:42 24.79126 -80.95403 1286 ft 178 kts 201°
2026-05-04 06:44 24.74146 -81.01258 639 ft 146 kts 248°
2026-05-04 06:44 24.73729 -81.02274 421 ft 144 kts 247°
2026-05-04 06:44 24.73328 -81.03274 223 ft 137 kts 250°
2026-05-04 06:45 24.72954 -81.04260 65 ft 138 kts 250°
2026-05-04 06:45 24.72610 -81.05167 10 ft 97 kts 247°
2026-05-04 06:45 24.72490 -81.05476 10 ft 21 kts 248°
2026-05-04 06:45 24.72404 -81.05701 10 ft 35 kts 248°
2026-05-04 06:46 24.72314 -81.05791 10 ft 15 kts 98°
2026-05-04 06:46 24.72355 -81.05675 10 ft 17 kts 67°
2026-05-04 06:46 24.72405 -81.05546 10 ft 18 kts 68°
2026-05-04 06:46 24.72445 -81.05439 10 ft 13 kts 68°
2026-05-04 06:48 24.72451 -81.05341 10 ft 0 kts 338°
2026-05-04 07:01 24.72322 -81.05762 10 ft 6 kts 249°
2026-05-04 07:01 24.72316 -81.05797 10 ft 0 kts 289°
2026-05-04 07:03 24.72318 -81.05801 10 ft 1 kts 294°
2026-05-04 07:03 24.72358 -81.05807 10 ft 10 kts 43°
2026-05-04 07:03 24.72374 -81.05776 10 ft 0 kts 66°
2026-05-04 07:04 24.72445 -81.05595 10 ft 66 kts 66°
2026-05-04 07:05 24.72716 -81.04871 11 ft 132 kts 65°
2026-05-04 07:05 24.73134 -81.03976 454 ft 132 kts 51°
2026-05-04 07:05 24.73892 -81.03202 761 ft 152 kts 23°
2026-05-04 07:05 24.74970 -81.03075 1193 ft 163 kts 343°
2026-05-04 07:06 24.77636 -81.04069 1886 ft 235 kts 338°
2026-05-04 07:06 24.79237 -81.04730 2608 ft 253 kts 338°
2026-05-04 07:06 24.80899 -81.05415 3662 ft 256 kts 337°
2026-05-04 07:07 24.82565 -81.06101 4733 ft 258 kts 336°